Location: *
(28.3744°N, 81.5492°W)
Time: 03:02:37
(UTC+00:00)

Cosmos 1607 - Pass Details

Date: 15 June 2025
Orbit: 931 x 971 km, 65.0° (Epoch: 11 July)

Event Time Altitude Azimuth Distance (km) Brightness Sun altitude
Exits shadow 07:38:35 45° 128° (SE) 1,266 4.5 -29.3°
Maximum altitude 07:39:09 47° 111° (ESE) 1,244 4.5 -29.3°
Drops below altitude 10° 07:45:03 10° 40° (NE) 2,661 7.2 -28.5°
Sets 07:47:40 0° 35° (NE) 3,603 8.2 -28.2°
